sat.trackr.live / text

‹ back to catalog

TERRESTAR-1

NORAD 35496 · 2009-035A

PAYLOAD ACTIVE UNKNOWN

§ Identity

Operator
Country
US
Launch date
2009-07-01
Launch site
FRGUI
Launch vehicle
Mass (kg)
RCS (m²)
17.30

Purposes: comms

External: N2YO · Heavens-Above · Gunter

§ Orbital elements

Epoch: 2026-05-24T20:22:19.005312Z

Period
1,436.08 min
Inclination
5.1710°
Eccentricity
0.0002789
Mean motion
1.00272655 rev/d
Perigee alt
35,774.6 km
Apogee alt
35,798.1 km
Semi-major
42,164.5 km
B*
0.0000e+0
RAAN
48.8040°
Arg perigee
12.0352°
Mean anomaly
16.1717°
Rev number
6,190

§ Raw data

TERRESTAR-11 35496U 09035A   26144.84883108 -.00000060  00000+0  00000+0 0  99962 35496   5.1710  48.8040 0002789  12.0352  16.1717  1.00272655 61903

JSON: /api/v1/satellites/35496 · /tle

For live sub-satellite position, see the globe view (requires WebGL).

§ Visibility from observer

Set your observer location to see the next 7 days of passes ≥ 10°. The values pass through the URL so the page stays shareable.

No JS? Fill the form by hand. The geolocation button needs JavaScript.